Flag for Austria Weather past 2 weeks in Hollabrunn, Lower Austria, Austria

Now
50 °F

Cool.


Feels Like: 49 °F
Forecast: 52 / 69 °F
Wind: 5 mph from North

Location: Retz

Current Time: May 24, 2015 at 9:41:50 AM

Latest Report: May 24, 2015 at 9:00 AM


Visibility: N/A

Pressure: 30.04 "Hg

Humidity: 97%

Dew point: 49 °F

Location of HollabrunnLocation

Historic Weather in Hollabrunn — Graph

°F

Hollabrunn temperature yesterday

Maximum temperature yesterday: 56 °F (at 1:00 PM)
Minimum temperature yesterday: 51 °F (at 10:00 PM)
Average temperature yesterday: 54 °F

Past Weeks' High & Low Weather Summary

 TemperatureHumidityPressure
High74 °F (May 12, 5:00 PM)98% (May 23, 7:00 PM)30.41 "Hg (May 23, 7:00 PM)
Low45 °F (May 11, 6:00 AM)26% (May 11, 3:00 PM)29.72 "Hg (May 19, 6:00 AM)
Average58 °F65%30.04 "Hg
* Reported May 9 8:00 AM — May 24 8:00 AM, Hollabrunn, Weather by CustomWeather, © 2015

Note: Actual official high and low records may vary slightly from our data, if they occured in-between our weather recording intervals... More about our weather records

Advertising

Hollabrunn weather history for previous 24 hours

 ConditionsComfort  
Time TempWeatherWind HumidityBarometerVisibility
8:00 AM
Sun, May 24
50 °FLight rain. Overcast.5 mph97%30.03 "Hg4 mi
7:00 AM50 °FOvercast.5 mph97%30.01 "Hg2 mi
6:00 AM49 °FCool.3 mph98%30.01 "HgN/A
5:00 AM49 °FCool.3 mph98%30.00 "HgN/A
4:00 AM50 °FCool.3 mph98%30.00 "HgN/A
3:00 AM50 °FFog.5 mph96%29.99 "HgN/A
2:00 AM50 °FCool.5 mph96%30.00 "HgN/A
1:00 AM50 °FFog.5 mph97%29.99 "HgN/A
12:00 AM51 °FFog.5 mph97%29.99 "HgN/A
10:00 PM
Sat, May 23
51 °FFog.3 mph97%29.98 "HgN/A
9:00 PM52 °FFog.3 mph97%29.97 "HgN/A
8:00 PM52 °FLight rain. Overcast.5 mph97%29.97 "Hg2 mi
7:00 PM52 °FFog.2 mph98%29.97 "HgN/A
6:00 PM53 °FFog.5 mph95%29.95 "HgN/A
5:00 PM53 °FCool.3 mph97%29.96 "HgN/A
4:00 PM54 °FFog.2 mph95%29.96 "HgN/A
3:00 PM54 °FFog.3 mph92%29.95 "HgN/A
2:00 PM56 °FLight rain. Overcast.2 mph78%29.96 "Hg3 mi
1:00 PM56 °FCool.5 mph73%29.95 "HgN/A
12:00 PM56 °FCool.5 mph71%29.96 "HgN/A
11:00 AM56 °FCool.3 mph74%29.96 "HgN/A
10:00 AM54 °FCool.3 mph82%29.98 "HgN/A
9:00 AM53 °FCool.5 mph86%29.98 "HgN/A
Weather by CustomWeather, © 2015

See weather overviewHow to use our weather pages